OAS124 KEWR-SKCL

Flight info

Callsign OAS124
Flight time 5h 36m
Altitude 36000
Route BIGGY Q75 SLOJO Q103 EMCET Q69 ISUZO Q93 DEBRL/N0445F370 Q93 EBAYY/N0445F360 Q93 VAULT Q79 MCLAW Y442 FUNDI/N0452F370 UM335 ARNAL UL465 TBG UN420 BUSMO UW90 ASIKO ASIKO1C
Aircraft A20N/M-SDE2E3FGHIRWXY/LB1

Departure

Time 2026-04-24 00:47
Airport Newark Liberty International Airport (KEWR)

Arrival

Time 2026-04-24 06:24
Airport Alfonso Bonilla Aragon International Airport (SKCL)
Time Latitude Longitude Altitude Speed Heading
2026-04-23 23:27 40.68741 -74.17726 29 ft 0 kts 32°
2026-04-24 00:24 40.68727 -74.17737 30 ft 3 kts 32°
2026-04-24 00:24 40.68710 -74.17741 28 ft 3 kts 319°
2026-04-24 00:24 40.68705 -74.17734 27 ft 0 kts 301°
2026-04-24 00:38 40.68707 -74.17740 29 ft 3 kts 297°
2026-04-24 00:39 40.68711 -74.17756 27 ft 1 kts 278°
2026-04-24 00:39 40.68708 -74.17769 26 ft 1 kts 225°
2026-04-24 00:39 40.68697 -74.17769 25 ft 1 kts 155°
2026-04-24 00:39 40.68674 -74.17746 25 ft 6 kts 135°
2026-04-24 00:40 40.68643 -74.17684 28 ft 10 kts 118°
2026-04-24 00:40 40.68604 -74.17580 27 ft 9 kts 117°
2026-04-24 00:40 40.68580 -74.17579 27 ft 5 kts 186°
2026-04-24 00:40 40.68567 -74.17569 28 ft 5 kts 104°
2026-04-24 00:41 40.68571 -74.17530 28 ft 3 kts 82°
2026-04-24 00:41 40.68571 -74.17510 28 ft 1 kts 95°
2026-04-24 00:41 40.68559 -74.17487 28 ft 2 kts 150°
2026-04-24 00:41 40.68536 -74.17491 28 ft 9 kts 196°
2026-04-24 00:42 40.68448 -74.17538 27 ft 15 kts 201°
2026-04-24 00:42 40.68383 -74.17573 26 ft 9 kts 203°
2026-04-24 00:42 40.68320 -74.17610 27 ft 10 kts 204°
2026-04-24 00:42 40.68246 -74.17656 23 ft 14 kts 206°
2026-04-24 00:43 40.68166 -74.17707 23 ft 12 kts 206°
2026-04-24 00:43 40.68098 -74.17751 23 ft 11 kts 206°
2026-04-24 00:43 40.68024 -74.17798 23 ft 13 kts 206°
2026-04-24 00:43 40.67951 -74.17844 26 ft 12 kts 206°
2026-04-24 00:44 40.67886 -74.17886 29 ft 9 kts 206°
2026-04-24 00:44 40.67832 -74.17920 28 ft 9 kts 206°
2026-04-24 00:44 40.67778 -74.17955 25 ft 8 kts 205°
2026-04-24 00:44 40.67725 -74.17988 25 ft 9 kts 205°
2026-04-24 00:45 40.67672 -74.18020 30 ft 7 kts 205°
2026-04-24 00:45 40.67631 -74.18046 27 ft 6 kts 200°
2026-04-24 00:45 40.67612 -74.18046 26 ft 0 kts 173°
2026-04-24 00:45 40.67601 -74.18036 27 ft 3 kts 127°
2026-04-24 00:46 40.67596 -74.17999 27 ft 6 kts 89°
2026-04-24 00:46 40.67587 -74.17950 25 ft 7 kts 99°
2026-04-24 00:46 40.67597 -74.17913 25 ft 3 kts 53°
2026-04-24 00:46 40.67640 -74.17873 25 ft 14 kts 26°
2026-04-24 00:47 40.67870 -74.17731 21 ft 68 kts 26°
2026-04-24 00:47 40.68497 -74.17336 27 ft 132 kts 26°
2026-04-24 00:47 40.69451 -74.16686 211 ft 167 kts 22°
2026-04-24 00:47 40.70549 -74.16044 754 ft 177 kts 20°
2026-04-24 00:48 40.71697 -74.15379 1346 ft 183 kts 20°
2026-04-24 00:48 40.72832 -74.14649 2010 ft 184 kts 21°
2026-04-24 00:48 40.73902 -74.13632 2462 ft 203 kts 45°
2026-04-24 00:48 40.74830 -74.12127 2768 ft 218 kts 48°
2026-04-24 00:49 40.75759 -74.10437 3059 ft 241 kts 55°
2026-04-24 00:49 40.76279 -74.08199 2988 ft 267 kts 73°
2026-04-24 00:49 40.76852 -74.05849 3012 ft 268 kts 59°
2026-04-24 00:49 40.78000 -74.04013 3005 ft 256 kts 30°
2026-04-24 00:50 40.79612 -74.03187 2988 ft 247 kts
2026-04-24 00:50 40.81273 -74.03539 2992 ft 243 kts 333°
2026-04-24 00:50 40.82551 -74.04954 2987 ft 243 kts 304°
2026-04-24 00:50 40.83148 -74.07014 3013 ft 247 kts 283°
2026-04-24 00:51 40.83374 -74.09279 3009 ft 250 kts 278°
2026-04-24 00:51 40.83565 -74.11561 3012 ft 250 kts 281°
2026-04-24 00:51 40.83640 -74.13858 3067 ft 256 kts 259°
2026-04-24 00:51 40.82862 -74.16000 3563 ft 263 kts 240°
2026-04-24 00:52 40.81824 -74.17990 4386 ft 262 kts 239°
2026-04-24 00:52 40.80784 -74.19956 5253 ft 260 kts 240°
2026-04-24 00:52 40.79757 -74.21937 6054 ft 263 kts 242°
2026-04-24 00:52 40.78732 -74.23955 6776 ft 266 kts 242°
2026-04-24 00:53 40.77706 -74.25997 7495 ft 268 kts 244°
2026-04-24 00:53 40.76693 -74.28026 8268 ft 269 kts 245°
2026-04-24 00:53 40.75663 -74.30095 8990 ft 272 kts 245°
2026-04-24 00:53 40.74621 -74.32184 9774 ft 272 kts 246°
2026-04-24 00:54 40.73576 -74.34291 10348 ft 280 kts 246°
2026-04-24 00:54 40.72483 -74.36515 10637 ft 298 kts 246°
2026-04-24 00:54 40.71318 -74.38879 10919 ft 316 kts 245°
2026-04-24 00:54 40.70080 -74.41376 11194 ft 333 kts 245°
2026-04-24 00:55 40.68786 -74.43967 11705 ft 342 kts 244°
2026-04-24 00:55 40.67464 -74.46603 12336 ft 347 kts 244°
2026-04-24 00:55 40.66127 -74.49269 12978 ft 351 kts 245°
2026-04-24 00:55 40.64773 -74.51973 13623 ft 356 kts 245°
2026-04-24 00:56 40.63406 -74.54704 14213 ft 359 kts 245°
2026-04-24 00:56 40.62047 -74.57411 14903 ft 359 kts 245°
2026-04-24 00:56 40.60672 -74.60151 15620 ft 359 kts 244°
2026-04-24 00:56 40.59297 -74.62892 16292 ft 360 kts 244°
2026-04-24 00:57 40.57912 -74.65652 16799 ft 363 kts 244°
2026-04-24 00:57 40.56520 -74.68424 16971 ft 363 kts 244°
2026-04-24 00:57 40.53733 -74.73965 16969 ft 364 kts 244°
2026-04-24 00:58 40.52335 -74.76742 16982 ft 364 kts 244°
2026-04-24 00:58 40.50954 -74.79482 17041 ft 365 kts 244°
2026-04-24 00:58 40.49528 -74.82311 17553 ft 367 kts 244°
2026-04-24 00:58 40.48137 -74.85064 18254 ft 366 kts 244°
2026-04-24 00:59 40.46726 -74.87855 18813 ft 368 kts 244°
2026-04-24 00:59 40.45305 -74.90669 19260 ft 372 kts 244°
2026-04-24 00:59 40.43867 -74.93512 19726 ft 375 kts 244°
2026-04-24 00:59 40.42393 -74.96359 20207 ft 381 kts 241°
2026-04-24 01:00 40.40726 -74.99098 20662 ft 387 kts 237°
2026-04-24 01:00 40.38930 -75.01762 21129 ft 392 kts 235°
2026-04-24 01:00 40.37056 -75.04395 21554 ft 396 kts 234°
2026-04-24 01:00 40.35146 -75.07022 21985 ft 400 kts 233°
2026-04-24 01:01 40.33243 -75.09628 22448 ft 402 kts 233°
2026-04-24 01:01 40.31311 -75.12283 22880 ft 405 kts 233°
2026-04-24 01:01 40.29369 -75.14970 23299 ft 407 kts 234°
2026-04-24 01:01 40.27422 -75.17677 23712 ft 410 kts 234°
2026-04-24 01:02 40.25466 -75.20406 24072 ft 412 kts 234°
2026-04-24 01:02 40.23500 -75.23151 24433 ft 414 kts 234°
2026-04-24 01:02 40.21527 -75.25905 24795 ft 416 kts 234°
2026-04-24 01:02 40.19542 -75.28675 25145 ft 418 kts 234°
2026-04-24 01:03 40.17545 -75.31459 25485 ft 420 kts 234°
2026-04-24 01:03 40.15542 -75.34246 25836 ft 422 kts 234°
2026-04-24 01:03 40.13554 -75.37011 26162 ft 424 kts 234°
2026-04-24 01:03 40.11530 -75.39822 26480 ft 426 kts 234°
2026-04-24 01:04 40.09496 -75.42645 26788 ft 428 kts 233°
2026-04-24 01:04 40.07452 -75.45478 27123 ft 430 kts 233°
2026-04-24 01:04 40.05396 -75.48326 27434 ft 432 kts 233°
2026-04-24 01:04 40.03329 -75.51187 27757 ft 434 kts 233°
2026-04-24 01:05 40.01254 -75.54056 28037 ft 436 kts 233°
2026-04-24 01:05 39.99168 -75.56938 28316 ft 437 kts 233°
2026-04-24 01:05 39.97079 -75.59819 28667 ft 438 kts 233°
2026-04-24 01:05 39.94982 -75.62708 28997 ft 439 kts 233°
2026-04-24 01:06 39.92888 -75.65590 29399 ft 438 kts 233°
2026-04-24 01:06 39.90847 -75.68511 29784 ft 434 kts 235°
2026-04-24 01:06 39.88903 -75.71509 30146 ft 432 kts 237°
2026-04-24 01:06 39.87012 -75.74545 30414 ft 432 kts 238°
2026-04-24 01:07 39.85162 -75.77559 30663 ft 432 kts 238°
2026-04-24 01:07 39.83289 -75.80616 30903 ft 433 kts 238°
2026-04-24 01:07 39.81402 -75.83677 31127 ft 434 kts 238°
2026-04-24 01:07 39.79508 -75.86727 31393 ft 434 kts 238°
2026-04-24 01:08 39.77607 -75.89768 31653 ft 434 kts 238°
2026-04-24 01:08 39.75698 -75.92810 31892 ft 434 kts 238°
2026-04-24 01:08 39.73790 -75.95842 32122 ft 434 kts 238°
2026-04-24 01:08 39.71877 -75.98878 32364 ft 434 kts 238°
2026-04-24 01:09 39.69992 -76.01866 32595 ft 434 kts 238°
2026-04-24 01:09 39.68078 -76.04898 32815 ft 434 kts 238°
2026-04-24 01:09 39.66163 -76.07930 33032 ft 434 kts 238°
2026-04-24 01:09 39.64248 -76.10959 33253 ft 434 kts 238°
2026-04-24 01:10 39.62336 -76.13981 33470 ft 433 kts 238°
2026-04-24 01:10 39.60424 -76.16997 33697 ft 433 kts 237°
2026-04-24 01:10 39.58500 -76.19999 33897 ft 433 kts 237°
2026-04-24 01:10 39.56563 -76.22989 34057 ft 433 kts 237°
2026-04-24 01:11 39.54621 -76.25972 34225 ft 433 kts 237°
2026-04-24 01:11 39.52676 -76.28952 34405 ft 432 kts 237°
2026-04-24 01:11 39.50763 -76.31881 34574 ft 432 kts 237°
2026-04-24 01:11 39.48822 -76.34853 34727 ft 432 kts 237°
2026-04-24 01:12 39.46884 -76.37816 34881 ft 432 kts 236°
2026-04-24 01:12 39.44867 -76.40706 34995 ft 434 kts 233°
2026-04-24 01:12 39.42767 -76.43521 35172 ft 434 kts 232°
2026-04-24 01:12 39.40633 -76.46289 35313 ft 435 kts 232°
2026-04-24 01:13 39.38489 -76.49038 35449 ft 434 kts 232°
2026-04-24 01:13 39.36344 -76.51790 35566 ft 434 kts 232°
2026-04-24 01:13 39.34206 -76.54545 35660 ft 435 kts 232°
2026-04-24 01:13 39.32099 -76.57273 35767 ft 435 kts 232°
2026-04-24 01:14 39.29969 -76.60038 35883 ft 434 kts 232°
2026-04-24 01:14 39.25697 -76.65601 35915 ft 437 kts 232°
2026-04-24 01:15 39.21422 -76.71157 35922 ft 436 kts 232°
2026-04-24 01:15 39.17149 -76.76699 35924 ft 436 kts 232°
2026-04-24 01:16 39.12902 -76.82196 35962 ft 436 kts 232°
2026-04-24 01:16 39.08625 -76.87723 35921 ft 436 kts 232°
2026-04-24 01:17 39.04340 -76.93251 35931 ft 437 kts 231°
2026-04-24 01:17 39.00047 -76.98780 35928 ft 437 kts 231°
2026-04-24 01:18 38.95748 -77.04314 35929 ft 437 kts 231°
2026-04-24 01:18 38.91483 -77.09799 35920 ft 437 kts 231°
2026-04-24 01:19 38.87186 -77.15315 35921 ft 437 kts 231°
2026-04-24 01:19 38.82880 -77.20830 35897 ft 437 kts 231°
2026-04-24 01:20 38.78572 -77.26339 35897 ft 438 kts 231°
2026-04-24 01:20 38.74254 -77.31852 35897 ft 438 kts 231°
2026-04-24 01:21 38.69821 -77.37235 35932 ft 440 kts 228°
2026-04-24 01:21 38.65290 -77.42437 35928 ft 441 kts 227°
2026-04-24 01:22 38.60717 -77.47657 35934 ft 441 kts 227°
2026-04-24 01:22 38.56150 -77.52894 35941 ft 441 kts 228°
2026-04-24 01:23 38.51595 -77.58131 35942 ft 441 kts 228°
2026-04-24 01:23 38.47037 -77.63365 35937 ft 441 kts 227°
2026-04-24 01:24 38.42514 -77.68550 35944 ft 442 kts 227°
2026-04-24 01:24 38.38224 -77.73459 35936 ft 442 kts 227°
2026-04-24 01:25 38.33648 -77.78684 35936 ft 442 kts 227°
2026-04-24 01:25 38.29072 -77.83900 35934 ft 442 kts 227°
2026-04-24 01:26 38.24494 -77.89110 35941 ft 442 kts 227°
2026-04-24 01:26 38.19940 -77.94284 35943 ft 442 kts 227°
2026-04-24 01:27 38.15349 -77.99490 35942 ft 442 kts 227°
2026-04-24 01:27 38.10764 -78.04680 35942 ft 442 kts 227°
2026-04-24 01:28 38.06173 -78.09868 35942 ft 442 kts 227°
2026-04-24 01:28 38.01608 -78.15005 35939 ft 442 kts 225°
2026-04-24 01:29 37.96768 -78.19878 35926 ft 445 kts 222°
2026-04-24 01:29 37.91788 -78.24553 35930 ft 445 kts 221°
2026-04-24 01:30 37.86813 -78.29218 35925 ft 445 kts 221°
2026-04-24 01:30 37.81855 -78.33912 35928 ft 445 kts 222°
2026-04-24 01:31 37.76941 -78.38582 35926 ft 445 kts 222°
2026-04-24 01:31 37.71992 -78.43281 35929 ft 445 kts 222°
2026-04-24 01:32 37.67040 -78.47975 35931 ft 445 kts 221°
2026-04-24 01:32 37.62086 -78.52660 35928 ft 445 kts 221°
2026-04-24 01:33 37.57160 -78.57311 35938 ft 446 kts 221°
2026-04-24 01:33 37.52195 -78.61990 35944 ft 446 kts 221°
2026-04-24 01:34 37.47232 -78.66660 35946 ft 446 kts 221°
2026-04-24 01:34 37.42263 -78.71327 35945 ft 446 kts 221°
2026-04-24 01:35 37.37321 -78.75960 35944 ft 446 kts 221°
2026-04-24 01:35 37.32342 -78.80621 35950 ft 446 kts 221°
2026-04-24 01:36 37.27361 -78.85277 35958 ft 446 kts 221°
2026-04-24 01:36 37.22376 -78.89928 35952 ft 446 kts 221°
2026-04-24 01:37 37.17391 -78.94570 35948 ft 447 kts 221°
2026-04-24 01:37 37.12430 -78.99184 35955 ft 447 kts 220°
2026-04-24 01:38 37.07436 -79.03820 35951 ft 447 kts 220°
2026-04-24 01:38 37.02437 -79.08453 35952 ft 447 kts 220°
2026-04-24 01:39 36.97437 -79.13079 35944 ft 447 kts 220°
2026-04-24 01:39 36.92466 -79.17671 35954 ft 448 kts 220°
2026-04-24 01:40 36.87451 -79.22295 35954 ft 448 kts 220°
2026-04-24 01:40 36.82438 -79.26910 35963 ft 448 kts 220°
2026-04-24 01:41 36.77426 -79.31517 35968 ft 448 kts 220°
2026-04-24 01:41 36.72409 -79.36121 35975 ft 448 kts 220°
2026-04-24 01:42 36.67420 -79.40691 35979 ft 448 kts 220°
2026-04-24 01:42 36.62396 -79.45286 35979 ft 448 kts 220°
2026-04-24 01:43 36.57367 -79.49877 35976 ft 449 kts 220°
2026-04-24 01:43 36.52302 -79.54497 35958 ft 455 kts 220°
2026-04-24 01:44 36.47165 -79.59174 35968 ft 461 kts 219°
2026-04-24 01:44 36.41989 -79.63877 35967 ft 467 kts 219°
2026-04-24 01:45 36.36704 -79.68670 35967 ft 474 kts 219°
2026-04-24 01:45 36.31379 -79.73489 35999 ft 473 kts 219°
2026-04-24 01:46 36.26061 -79.78291 35993 ft 473 kts 219°
2026-04-24 01:46 36.20781 -79.83054 35995 ft 473 kts 219°
2026-04-24 01:47 36.15462 -79.87844 35999 ft 473 kts 219°
2026-04-24 01:47 36.10137 -79.92633 35999 ft 473 kts 219°
2026-04-24 01:48 36.04702 -79.97228 36003 ft 476 kts 210°
2026-04-24 01:48 35.98655 -80.00623 36008 ft 478 kts 205°
2026-04-24 01:49 35.92521 -80.03677 35991 ft 479 kts 204°
2026-04-24 01:49 35.86318 -80.06689 36002 ft 479 kts 204°
2026-04-24 01:50 35.80123 -80.09714 36007 ft 479 kts 204°
2026-04-24 01:50 35.73938 -80.12749 36012 ft 478 kts 204°
2026-04-24 01:51 35.67799 -80.15765 36007 ft 478 kts 204°
2026-04-24 01:51 35.61621 -80.18796 36002 ft 479 kts 204°
2026-04-24 01:52 35.55431 -80.21827 36047 ft 479 kts 204°
2026-04-24 01:52 35.50287 -80.24341 36052 ft 479 kts 204°
2026-04-24 01:53 35.43053 -80.27870 36052 ft 479 kts 204°
2026-04-24 01:53 35.36903 -80.30866 36048 ft 479 kts 204°
2026-04-24 01:54 35.30717 -80.33874 36037 ft 478 kts 204°
2026-04-24 01:54 35.24529 -80.36878 36027 ft 478 kts 204°
2026-04-24 01:55 35.18341 -80.39877 36014 ft 478 kts 204°
2026-04-24 01:55 35.12193 -80.42852 36004 ft 478 kts 204°
2026-04-24 01:56 35.06004 -80.45841 36014 ft 478 kts 204°
2026-04-24 01:56 34.99818 -80.48824 36016 ft 478 kts 204°
2026-04-24 01:57 34.94679 -80.51300 36022 ft 478 kts 204°
2026-04-24 01:57 34.87487 -80.54757 36012 ft 478 kts 204°
2026-04-24 01:58 34.81300 -80.57727 36017 ft 478 kts 204°
2026-04-24 01:58 34.75131 -80.60683 36015 ft 478 kts 204°
2026-04-24 01:59 34.68926 -80.63651 36031 ft 478 kts 204°
2026-04-24 01:59 34.62724 -80.66508 36024 ft 479 kts 200°
2026-04-24 02:00 34.56347 -80.68934 36025 ft 479 kts 198°
2026-04-24 02:00 34.49975 -80.71220 36022 ft 479 kts 198°
2026-04-24 02:01 34.44655 -80.73151 36009 ft 479 kts 199°
2026-04-24 02:01 34.38257 -80.75507 36000 ft 479 kts 199°
2026-04-24 02:02 34.31905 -80.77861 36019 ft 479 kts 199°
2026-04-24 02:02 34.25527 -80.80222 36018 ft 479 kts 199°
2026-04-24 02:03 34.15904 -80.83588 36026 ft 480 kts 192°
2026-04-24 02:03 34.09336 -80.84952 36033 ft 480 kts 190°
2026-04-24 02:04 34.02752 -80.86142 36008 ft 480 kts 190°
2026-04-24 02:04 33.96135 -80.87305 36008 ft 480 kts 190°
2026-04-24 02:05 33.89541 -80.88476 36007 ft 480 kts 190°
2026-04-24 02:05 33.82929 -80.89731 36008 ft 479 kts 192°
2026-04-24 02:06 33.76379 -80.91262 36004 ft 478 kts 193°
2026-04-24 02:06 33.69872 -80.92849 36024 ft 478 kts 193°
2026-04-24 02:07 33.63337 -80.94419 36026 ft 478 kts 193°
2026-04-24 02:07 33.56833 -80.95957 36025 ft 478 kts 192°
2026-04-24 02:08 33.50297 -80.97492 36062 ft 478 kts 192°
2026-04-24 02:08 33.43797 -80.99017 36063 ft 478 kts 192°
2026-04-24 02:09 33.37269 -81.00547 36056 ft 478 kts 192°
2026-04-24 02:09 33.30736 -81.02075 36053 ft 478 kts 192°
2026-04-24 02:10 33.24197 -81.03604 36050 ft 478 kts 192°
2026-04-24 02:10 33.17701 -81.05119 36047 ft 478 kts 192°
2026-04-24 02:11 33.11167 -81.06642 36043 ft 477 kts 192°
2026-04-24 02:11 33.04672 -81.08153 36043 ft 477 kts 192°
2026-04-24 02:12 32.98124 -81.09674 36057 ft 478 kts 192°
2026-04-24 02:12 32.91619 -81.11182 36060 ft 478 kts 192°
2026-04-24 02:13 32.85111 -81.12690 36058 ft 478 kts 192°
2026-04-24 02:13 32.78590 -81.14197 36053 ft 477 kts 192°
2026-04-24 02:14 32.72050 -81.15707 36051 ft 477 kts 192°
2026-04-24 02:14 32.65563 -81.17203 36050 ft 477 kts 192°
2026-04-24 02:15 32.59038 -81.18705 36052 ft 477 kts 192°
2026-04-24 02:15 32.52502 -81.20208 36056 ft 477 kts 192°
2026-04-24 02:16 32.45968 -81.21224 36050 ft 477 kts 185°
2026-04-24 02:16 32.39325 -81.21652 36058 ft 478 kts 184°
2026-04-24 02:17 32.32665 -81.21968 36078 ft 478 kts 183°
2026-04-24 02:17 32.26021 -81.22276 36081 ft 477 kts 183°
2026-04-24 02:18 32.19421 -81.22595 36092 ft 477 kts 183°
2026-04-24 02:18 32.12775 -81.22925 36099 ft 477 kts 183°
2026-04-24 02:19 32.06165 -81.23254 36095 ft 477 kts 183°
2026-04-24 02:19 31.99518 -81.23584 36043 ft 477 kts 183°
2026-04-24 02:20 31.92878 -81.23291 36049 ft 477 kts 175°
2026-04-24 02:20 31.86310 -81.22535 36050 ft 477 kts 174°
2026-04-24 02:21 31.79674 -81.21684 36044 ft 478 kts 174°
2026-04-24 02:21 31.73094 -81.20841 36058 ft 478 kts 174°
2026-04-24 02:22 31.66493 -81.20011 36058 ft 479 kts 174°
2026-04-24 02:22 31.59860 -81.19184 36065 ft 479 kts 174°
2026-04-24 02:23 31.53218 -81.18359 36067 ft 479 kts 174°
2026-04-24 02:23 31.46592 -81.17536 36069 ft 479 kts 174°
2026-04-24 02:24 31.39987 -81.16717 36081 ft 479 kts 174°
2026-04-24 02:24 31.33341 -81.15902 36080 ft 479 kts 174°
2026-04-24 02:25 31.26749 -81.15104 36082 ft 479 kts 174°
2026-04-24 02:25 31.20125 -81.14305 36084 ft 478 kts 174°
2026-04-24 02:26 31.13487 -81.13504 36085 ft 479 kts 174°
2026-04-24 02:26 31.06887 -81.12708 36085 ft 479 kts 174°
2026-04-24 02:27 31.00255 -81.11908 36090 ft 478 kts 175°
2026-04-24 02:27 30.93612 -81.11109 36083 ft 479 kts 175°
2026-04-24 02:28 30.87021 -81.10318 36086 ft 478 kts 175°
2026-04-24 02:28 30.80396 -81.09523 36084 ft 478 kts 175°
2026-04-24 02:29 30.73787 -81.08731 36088 ft 477 kts 175°
2026-04-24 02:29 30.67169 -81.07938 36093 ft 478 kts 175°
2026-04-24 02:30 30.60593 -81.07590 36093 ft 474 kts 182°
2026-04-24 02:30 30.53994 -81.07878 36086 ft 473 kts 184°
2026-04-24 02:31 30.47407 -81.08287 36085 ft 473 kts 184°
2026-04-24 02:31 30.40855 -81.08704 36090 ft 473 kts 184°
2026-04-24 02:32 30.34255 -81.09110 36090 ft 474 kts 184°
2026-04-24 02:32 30.27665 -81.09507 36091 ft 474 kts 184°
2026-04-24 02:33 30.21104 -81.09899 36094 ft 474 kts 184°
2026-04-24 02:33 30.14507 -81.10292 36096 ft 474 kts 184°
2026-04-24 02:34 30.07956 -81.10684 36099 ft 473 kts 185°
2026-04-24 02:34 30.01387 -81.11076 36094 ft 470 kts 185°
2026-04-24 02:35 29.94840 -81.11466 36099 ft 470 kts 185°
2026-04-24 02:35 29.88352 -81.11853 36099 ft 470 kts 185°
2026-04-24 02:36 29.81814 -81.12232 36098 ft 470 kts 184°
2026-04-24 02:36 29.75260 -81.12359 36097 ft 467 kts 182°
2026-04-24 02:37 29.68797 -81.12351 36094 ft 465 kts 182°
2026-04-24 02:37 29.62322 -81.12349 36093 ft 465 kts 182°
2026-04-24 02:38 29.55877 -81.12399 36097 ft 465 kts 183°
2026-04-24 02:38 29.49406 -81.12618 36099 ft 461 kts 186°
2026-04-24 02:39 29.43073 -81.12882 36100 ft 455 kts 186°
2026-04-24 02:39 29.36740 -81.13139 36088 ft 454 kts 186°
2026-04-24 02:40 29.30396 -81.13024 36091 ft 460 kts 175°
2026-04-24 02:40 29.24205 -81.11051 36078 ft 467 kts 165°
2026-04-24 02:41 29.18112 -81.08416 36100 ft 468 kts 163°
2026-04-24 02:41 29.12073 -81.05681 36101 ft 468 kts 163°
2026-04-24 02:42 29.05996 -81.02957 36100 ft 468 kts 164°
2026-04-24 02:42 28.99933 -81.00277 36101 ft 468 kts 164°
2026-04-24 02:43 28.93849 -80.97603 36087 ft 468 kts 164°
2026-04-24 02:43 28.87771 -80.94937 36095 ft 470 kts 165°
2026-04-24 02:44 28.81651 -80.92255 36087 ft 470 kts 165°
2026-04-24 02:44 28.75565 -80.89590 36071 ft 472 kts 164°
2026-04-24 02:45 28.69399 -80.86900 36075 ft 474 kts 165°
2026-04-24 02:45 28.63183 -80.84413 36098 ft 472 kts 167°
2026-04-24 02:46 28.56961 -80.82062 36110 ft 474 kts 167°
2026-04-24 02:46 28.50682 -80.79689 36110 ft 475 kts 167°
2026-04-24 02:47 28.44434 -80.77309 36075 ft 475 kts 167°
2026-04-24 02:47 28.38154 -80.74910 36067 ft 475 kts 167°
2026-04-24 02:48 28.31909 -80.72524 36071 ft 475 kts 167°
2026-04-24 02:48 28.25618 -80.70126 36072 ft 476 kts 167°
2026-04-24 02:49 28.20388 -80.68134 36078 ft 477 kts 167°
2026-04-24 02:49 28.13065 -80.65349 36078 ft 476 kts 167°
2026-04-24 02:50 28.07825 -80.63358 36091 ft 476 kts 167°
2026-04-24 02:50 28.01526 -80.60968 36078 ft 476 kts 167°
2026-04-24 02:51 27.95233 -80.58584 36087 ft 476 kts 167°
2026-04-24 02:51 27.88975 -80.56216 36089 ft 476 kts 167°
2026-04-24 02:52 27.82674 -80.53834 36092 ft 476 kts 167°
2026-04-24 02:52 27.76395 -80.51496 36097 ft 476 kts 171°
2026-04-24 02:53 27.69947 -80.50642 36101 ft 460 kts 188°
2026-04-24 02:53 27.63580 -80.51265 36101 ft 458 kts 192°
2026-04-24 02:54 27.57295 -80.52168 36099 ft 457 kts 193°
2026-04-24 02:54 27.50979 -80.53102 36097 ft 457 kts 193°
2026-04-24 02:55 27.44645 -80.54004 36102 ft 458 kts 193°
2026-04-24 02:55 27.38335 -80.54880 36080 ft 456 kts 193°
2026-04-24 02:56 27.32074 -80.55742 36080 ft 456 kts 193°
2026-04-24 02:56 27.25773 -80.56611 36079 ft 456 kts 193°
2026-04-24 02:57 27.19497 -80.57477 36078 ft 456 kts 193°
2026-04-24 02:57 27.13184 -80.58347 36075 ft 456 kts 193°
2026-04-24 02:58 27.06871 -80.59216 36080 ft 456 kts 193°
2026-04-24 02:58 27.00615 -80.60076 36079 ft 456 kts 193°
2026-04-24 02:59 26.94308 -80.60942 36077 ft 456 kts 193°
2026-04-24 02:59 26.87996 -80.61807 36071 ft 456 kts 193°
2026-04-24 03:00 26.81738 -80.62664 36074 ft 454 kts 193°
2026-04-24 03:00 26.75467 -80.63521 36075 ft 453 kts 193°
2026-04-24 03:01 26.69211 -80.64377 36072 ft 453 kts 193°
2026-04-24 03:01 26.62984 -80.65228 36070 ft 453 kts 193°
2026-04-24 03:02 26.56711 -80.66084 36069 ft 453 kts 193°
2026-04-24 03:02 26.50471 -80.66934 36067 ft 453 kts 193°
2026-04-24 03:03 26.44212 -80.67786 36067 ft 452 kts 193°
2026-04-24 03:03 26.37984 -80.68633 36067 ft 453 kts 193°
2026-04-24 03:04 26.31709 -80.69485 36067 ft 453 kts 193°
2026-04-24 03:04 26.25478 -80.70330 36056 ft 453 kts 193°
2026-04-24 03:05 26.19215 -80.71178 36067 ft 452 kts 193°
2026-04-24 03:05 26.12962 -80.72025 36067 ft 452 kts 193°
2026-04-24 03:06 26.06741 -80.72866 36067 ft 452 kts 193°
2026-04-24 03:06 26.00476 -80.73713 36067 ft 452 kts 193°
2026-04-24 03:07 25.94244 -80.74553 36055 ft 452 kts 193°
2026-04-24 03:07 25.87995 -80.75395 36063 ft 451 kts 193°
2026-04-24 03:08 25.78641 -80.76719 36069 ft 448 kts 197°
2026-04-24 03:09 25.72563 -80.78069 36067 ft 447 kts 198°
2026-04-24 03:09 25.66475 -80.79522 36063 ft 447 kts 199°
2026-04-24 03:10 25.60431 -80.80983 36062 ft 445 kts 199°
2026-04-24 03:10 25.54368 -80.82441 36067 ft 445 kts 199°
2026-04-24 03:11 25.48304 -80.83892 36064 ft 445 kts 199°
2026-04-24 03:11 25.42282 -80.85330 36061 ft 445 kts 199°
2026-04-24 03:12 25.36227 -80.86773 36060 ft 445 kts 199°
2026-04-24 03:12 25.30177 -80.88213 36058 ft 443 kts 199°
2026-04-24 03:13 25.24190 -80.89637 36060 ft 442 kts 199°
2026-04-24 03:13 25.18168 -80.91070 36067 ft 442 kts 199°
2026-04-24 03:14 25.12127 -80.92505 36059 ft 444 kts 199°
2026-04-24 03:14 25.06119 -80.93932 36058 ft 444 kts 199°
2026-04-24 03:15 25.00068 -80.95366 36053 ft 444 kts 199°
2026-04-24 03:15 24.94030 -80.96795 36059 ft 443 kts 199°
2026-04-24 03:16 24.88027 -80.98215 36054 ft 443 kts 199°
2026-04-24 03:16 24.81996 -80.99641 36064 ft 443 kts 199°
2026-04-24 03:17 24.75902 -81.00835 36060 ft 450 kts 191°
2026-04-24 03:17 24.69655 -81.01230 36060 ft 453 kts 189°
2026-04-24 03:18 24.63327 -81.01458 36062 ft 454 kts 188°
2026-04-24 03:18 24.57043 -81.01655 36031 ft 454 kts 188°
2026-04-24 03:19 24.50689 -81.01687 36032 ft 456 kts 186°
2026-04-24 03:19 24.44369 -81.01603 36031 ft 456 kts 186°
2026-04-24 03:20 24.38010 -81.01521 36033 ft 456 kts 186°
2026-04-24 03:20 24.31683 -81.01458 36039 ft 456 kts 186°
2026-04-24 03:21 24.25330 -81.01404 36037 ft 456 kts 186°
2026-04-24 03:21 24.19022 -81.01353 36038 ft 456 kts 186°
2026-04-24 03:22 24.12661 -81.01300 36038 ft 456 kts 186°
2026-04-24 03:22 24.06328 -81.01248 36040 ft 458 kts 186°
2026-04-24 03:23 23.99934 -81.01189 36040 ft 459 kts 186°
2026-04-24 03:23 23.93563 -81.00974 36040 ft 460 kts 185°
2026-04-24 03:24 23.87148 -81.00677 36042 ft 460 kts 184°
2026-04-24 03:24 23.80731 -81.00384 36042 ft 460 kts 184°
2026-04-24 03:25 23.74353 -81.00108 36042 ft 460 kts 185°
2026-04-24 03:25 23.67930 -80.99837 36040 ft 460 kts 185°
2026-04-24 03:26 23.61550 -80.99569 36043 ft 460 kts 185°
2026-04-24 03:26 23.55125 -80.99299 36039 ft 460 kts 185°
2026-04-24 03:27 23.48752 -80.99031 36012 ft 460 kts 185°
2026-04-24 03:27 23.42373 -80.98763 36035 ft 459 kts 185°
2026-04-24 03:28 23.35986 -80.98494 36037 ft 459 kts 185°
2026-04-24 03:28 23.29581 -80.98227 36037 ft 459 kts 185°
2026-04-24 03:29 23.23185 -80.97958 36037 ft 459 kts 185°
2026-04-24 03:29 23.16835 -80.97690 36017 ft 459 kts 185°
2026-04-24 03:30 23.10434 -80.97420 36037 ft 459 kts 185°
2026-04-24 03:30 23.04094 -80.97149 36041 ft 458 kts 185°
2026-04-24 03:31 22.97696 -80.96882 36041 ft 458 kts 185°
2026-04-24 03:31 22.91313 -80.96631 36035 ft 458 kts 185°
2026-04-24 03:32 22.84968 -80.96385 36036 ft 458 kts 185°
2026-04-24 03:32 22.78583 -80.96135 36037 ft 458 kts 185°
2026-04-24 03:33 22.72207 -80.95886 36037 ft 458 kts 185°
2026-04-24 03:33 22.65862 -80.95637 36030 ft 458 kts 185°
2026-04-24 03:34 22.59478 -80.95388 36033 ft 458 kts 185°
2026-04-24 03:34 22.53086 -80.95138 36026 ft 458 kts 185°
2026-04-24 03:35 22.46755 -80.94891 36026 ft 459 kts 185°
2026-04-24 03:35 22.40364 -80.94642 36026 ft 459 kts 185°
2026-04-24 03:36 22.35055 -80.94435 36024 ft 459 kts 185°
2026-04-24 03:36 22.28658 -80.94185 36023 ft 459 kts 185°
2026-04-24 03:37 22.22302 -80.93938 36023 ft 459 kts 185°
2026-04-24 03:37 22.15901 -80.93690 36016 ft 459 kts 186°
2026-04-24 03:38 22.09494 -80.93441 36026 ft 459 kts 186°
2026-04-24 03:38 22.03127 -80.93194 36019 ft 459 kts 186°
2026-04-24 03:39 21.96763 -80.92947 36016 ft 459 kts 186°
2026-04-24 03:39 21.90371 -80.92700 36016 ft 459 kts 186°
2026-04-24 03:40 21.82923 -80.92412 36018 ft 460 kts 186°
2026-04-24 03:40 21.77563 -80.92205 36014 ft 460 kts 186°
2026-04-24 03:41 21.71162 -80.91957 36013 ft 460 kts 186°
2026-04-24 03:41 21.64792 -80.91712 36001 ft 460 kts 186°
2026-04-24 03:42 21.58415 -80.91466 36014 ft 460 kts 186°
2026-04-24 03:42 21.52009 -80.91219 36000 ft 459 kts 186°
2026-04-24 03:43 21.45612 -80.90970 36009 ft 459 kts 186°
2026-04-24 03:43 21.39279 -80.90717 36009 ft 455 kts 186°
2026-04-24 03:44 21.32967 -80.90475 36010 ft 456 kts 186°
2026-04-24 03:44 21.26616 -80.90233 36004 ft 456 kts 186°
2026-04-24 03:45 21.20262 -80.89989 36004 ft 456 kts 186°
2026-04-24 03:45 21.13958 -80.89745 36004 ft 456 kts 186°
2026-04-24 03:46 21.07615 -80.89500 36005 ft 456 kts 186°
2026-04-24 03:46 21.01261 -80.89233 36004 ft 456 kts 186°
2026-04-24 03:47 20.94935 -80.88952 36005 ft 456 kts 186°
2026-04-24 03:47 20.88580 -80.88669 35974 ft 456 kts 186°
2026-04-24 03:48 20.82240 -80.88388 35999 ft 454 kts 186°
2026-04-24 03:48 20.75942 -80.88112 35996 ft 454 kts 186°
2026-04-24 03:49 20.69626 -80.87837 35996 ft 454 kts 186°
2026-04-24 03:49 20.63335 -80.87562 35996 ft 454 kts 186°
2026-04-24 03:50 20.57009 -80.87286 35994 ft 454 kts 186°
2026-04-24 03:50 20.50727 -80.87011 35993 ft 454 kts 186°
2026-04-24 03:51 20.44402 -80.86735 35996 ft 454 kts 186°
2026-04-24 03:51 20.38077 -80.86460 35991 ft 454 kts 186°
2026-04-24 03:52 20.31795 -80.86186 35995 ft 454 kts 186°
2026-04-24 03:52 20.25467 -80.85911 35999 ft 454 kts 186°
2026-04-24 03:53 20.19184 -80.85637 35993 ft 454 kts 186°
2026-04-24 03:53 20.12863 -80.85362 35996 ft 453 kts 186°
2026-04-24 03:54 20.06585 -80.85090 35993 ft 453 kts 186°
2026-04-24 03:54 20.00272 -80.84816 35993 ft 453 kts 186°
2026-04-24 03:55 19.93947 -80.84520 35993 ft 454 kts 186°
2026-04-24 03:55 19.87668 -80.84214 35991 ft 454 kts 185°
2026-04-24 03:56 19.81342 -80.83907 35991 ft 453 kts 185°
2026-04-24 03:56 19.75071 -80.83604 35993 ft 453 kts 185°
2026-04-24 03:57 19.68759 -80.83300 35991 ft 453 kts 185°
2026-04-24 03:57 19.62442 -80.82997 35990 ft 453 kts 185°
2026-04-24 03:58 19.56170 -80.82696 35969 ft 453 kts 185°
2026-04-24 03:58 19.49853 -80.82394 35993 ft 453 kts 185°
2026-04-24 03:59 19.43578 -80.82093 35994 ft 453 kts 185°
2026-04-24 03:59 19.37258 -80.81790 35994 ft 454 kts 185°
2026-04-24 04:00 19.30978 -80.81490 35995 ft 454 kts 185°
2026-04-24 04:00 19.24659 -80.81188 35996 ft 453 kts 185°
2026-04-24 04:01 19.18340 -80.80887 35995 ft 454 kts 185°
2026-04-24 04:01 19.12062 -80.80589 35994 ft 454 kts 185°
2026-04-24 04:02 19.05773 -80.80289 35993 ft 454 kts 185°
2026-04-24 04:02 18.99436 -80.79988 35994 ft 454 kts 185°
2026-04-24 04:03 18.93151 -80.79689 35991 ft 454 kts 185°
2026-04-24 04:03 18.86828 -80.79389 35986 ft 454 kts 185°
2026-04-24 04:04 18.80524 -80.79090 35995 ft 453 kts 185°
2026-04-24 04:04 18.74255 -80.78793 35994 ft 453 kts 185°
2026-04-24 04:05 18.67933 -80.78494 35996 ft 453 kts 185°
2026-04-24 04:05 18.61660 -80.78197 35996 ft 453 kts 185°
2026-04-24 04:06 18.55349 -80.77899 35993 ft 453 kts 185°
2026-04-24 04:06 18.49065 -80.77601 35989 ft 453 kts 185°
2026-04-24 04:07 18.42742 -80.77303 35993 ft 453 kts 185°
2026-04-24 04:07 18.36476 -80.77007 35992 ft 453 kts 185°
2026-04-24 04:08 18.30147 -80.76709 35993 ft 453 kts 185°
2026-04-24 04:08 18.23871 -80.76413 35992 ft 453 kts 185°
2026-04-24 04:09 18.17554 -80.76116 35986 ft 453 kts 184°
2026-04-24 04:09 18.11291 -80.75821 35992 ft 452 kts 184°
2026-04-24 04:10 18.04996 -80.75525 35992 ft 452 kts 184°
2026-04-24 04:10 17.98752 -80.75232 35994 ft 451 kts 184°
2026-04-24 04:11 17.89338 -80.74790 35988 ft 451 kts 184°
2026-04-24 04:11 17.83056 -80.74496 35987 ft 451 kts 184°
2026-04-24 04:12 17.76764 -80.74201 35991 ft 451 kts 184°
2026-04-24 04:12 17.70485 -80.73907 35990 ft 452 kts 184°
2026-04-24 04:13 17.64232 -80.73615 35989 ft 451 kts 184°
2026-04-24 04:13 17.57936 -80.73320 35989 ft 452 kts 184°
2026-04-24 04:14 17.51684 -80.73028 35983 ft 451 kts 184°
2026-04-24 04:14 17.45408 -80.72734 35993 ft 450 kts 184°
2026-04-24 04:15 17.39171 -80.72442 35993 ft 450 kts 184°
2026-04-24 04:15 17.32904 -80.72150 35990 ft 450 kts 184°
2026-04-24 04:16 17.26630 -80.71858 35988 ft 450 kts 184°
2026-04-24 04:16 17.20401 -80.71567 35988 ft 450 kts 184°
2026-04-24 04:17 17.14128 -80.71275 35987 ft 449 kts 184°
2026-04-24 04:17 17.07921 -80.70985 35987 ft 448 kts 184°
2026-04-24 04:18 17.01679 -80.70695 35990 ft 448 kts 184°
2026-04-24 04:18 16.95436 -80.70406 35988 ft 448 kts 184°
2026-04-24 04:19 16.89213 -80.70117 35985 ft 448 kts 184°
2026-04-24 04:19 16.83000 -80.69829 35965 ft 448 kts 184°
2026-04-24 04:20 16.76747 -80.69539 35985 ft 448 kts 184°
2026-04-24 04:20 16.70545 -80.69251 35985 ft 448 kts 184°
2026-04-24 04:21 16.64297 -80.68962 35985 ft 448 kts 184°
2026-04-24 04:21 16.58080 -80.68674 35985 ft 448 kts 184°
2026-04-24 04:22 16.51836 -80.68385 35983 ft 448 kts 184°
2026-04-24 04:22 16.45584 -80.68095 35982 ft 449 kts 183°
2026-04-24 04:23 16.39345 -80.67808 35982 ft 450 kts 183°
2026-04-24 04:23 16.33115 -80.67521 35982 ft 450 kts 183°
2026-04-24 04:24 16.26839 -80.67231 35982 ft 450 kts 183°
2026-04-24 04:24 16.20559 -80.66941 35982 ft 450 kts 183°
2026-04-24 04:25 16.14318 -80.66653 35978 ft 450 kts 183°
2026-04-24 04:25 16.08034 -80.66365 35986 ft 452 kts 182°
2026-04-24 04:26 16.01787 -80.66077 35982 ft 452 kts 182°
2026-04-24 04:26 15.95483 -80.65787 35979 ft 452 kts 182°
2026-04-24 04:27 15.90245 -80.65545 35979 ft 452 kts 182°
2026-04-24 04:27 15.82921 -80.65209 35980 ft 452 kts 182°
2026-04-24 04:28 15.77668 -80.64968 35973 ft 452 kts 182°
2026-04-24 04:28 15.70343 -80.64632 35979 ft 452 kts 182°
2026-04-24 04:29 15.65105 -80.64392 35979 ft 452 kts 182°
2026-04-24 04:29 15.58799 -80.64102 35979 ft 452 kts 182°
2026-04-24 04:30 15.52536 -80.63816 35982 ft 452 kts 182°
2026-04-24 04:30 15.46217 -80.63526 35982 ft 452 kts 182°
2026-04-24 04:31 15.39955 -80.63240 35980 ft 453 kts 182°
2026-04-24 04:31 15.33642 -80.62951 35978 ft 453 kts 182°
2026-04-24 04:32 15.27321 -80.62662 35979 ft 453 kts 182°
2026-04-24 04:32 15.21041 -80.62375 35981 ft 453 kts 182°
2026-04-24 04:33 15.14731 -80.62087 35977 ft 453 kts 182°
2026-04-24 04:33 15.08423 -80.61800 35963 ft 453 kts 182°
2026-04-24 04:34 15.02143 -80.61513 35973 ft 455 kts 181°
2026-04-24 04:34 14.95829 -80.60701 35969 ft 458 kts 176°
2026-04-24 04:35 14.89526 -80.59647 35986 ft 459 kts 175°
2026-04-24 04:35 14.83218 -80.58545 35983 ft 459 kts 175°
2026-04-24 04:36 14.76906 -80.57447 35988 ft 459 kts 175°
2026-04-24 04:36 14.70634 -80.56366 35973 ft 460 kts 175°
2026-04-24 04:37 14.64288 -80.55277 35974 ft 461 kts 175°
2026-04-24 04:37 14.57987 -80.54197 35977 ft 462 kts 175°
2026-04-24 04:38 14.51637 -80.53109 35972 ft 461 kts 175°
2026-04-24 04:38 14.45295 -80.52021 35974 ft 461 kts 175°
2026-04-24 04:39 14.38988 -80.50941 35978 ft 461 kts 175°
2026-04-24 04:39 14.32639 -80.49854 35983 ft 461 kts 175°
2026-04-24 04:40 14.26331 -80.48775 35974 ft 461 kts 175°
2026-04-24 04:40 14.19985 -80.47690 35987 ft 461 kts 175°
2026-04-24 04:41 14.13645 -80.46607 35982 ft 461 kts 175°
2026-04-24 04:41 14.07339 -80.45530 35985 ft 461 kts 175°
2026-04-24 04:42 14.01003 -80.44449 35971 ft 461 kts 175°
2026-04-24 04:42 13.94651 -80.43365 35979 ft 461 kts 175°
2026-04-24 04:43 13.88350 -80.42291 35974 ft 461 kts 175°
2026-04-24 04:43 13.81993 -80.41207 35975 ft 461 kts 175°
2026-04-24 04:44 13.75692 -80.40134 35972 ft 461 kts 175°
2026-04-24 04:44 13.69333 -80.39052 35976 ft 461 kts 175°
2026-04-24 04:45 13.63026 -80.37979 35973 ft 460 kts 174°
2026-04-24 04:45 13.56701 -80.36903 35976 ft 459 kts 174°
2026-04-24 04:46 13.50372 -80.35827 35974 ft 459 kts 174°
2026-04-24 04:46 13.44085 -80.34760 35974 ft 459 kts 174°
2026-04-24 04:47 13.37768 -80.33688 35974 ft 459 kts 174°
2026-04-24 04:47 13.31485 -80.32622 35974 ft 459 kts 174°
2026-04-24 04:48 13.25159 -80.31549 35971 ft 460 kts 174°
2026-04-24 04:48 13.18866 -80.30483 35971 ft 460 kts 174°
2026-04-24 04:49 13.12541 -80.29411 35974 ft 460 kts 174°
2026-04-24 04:49 13.06200 -80.28337 35973 ft 460 kts 174°
2026-04-24 04:50 12.99903 -80.27272 35973 ft 460 kts 174°
2026-04-24 04:50 12.93563 -80.26199 35967 ft 461 kts 174°
2026-04-24 04:51 12.87257 -80.25134 35968 ft 462 kts 174°
2026-04-24 04:51 12.80876 -80.24056 35967 ft 463 kts 174°
2026-04-24 04:52 12.74546 -80.22986 35965 ft 463 kts 174°
2026-04-24 04:52 12.68181 -80.21912 35966 ft 463 kts 174°
2026-04-24 04:53 12.61850 -80.20844 35968 ft 463 kts 174°
2026-04-24 04:53 12.55489 -80.19771 35965 ft 464 kts 174°
2026-04-24 04:54 12.49133 -80.18701 35966 ft 465 kts 174°
2026-04-24 04:54 12.42743 -80.17624 35966 ft 465 kts 174°
2026-04-24 04:55 12.36350 -80.16547 35965 ft 465 kts 174°
2026-04-24 04:55 12.30000 -80.15476 35965 ft 460 kts 174°
2026-04-24 04:56 12.23718 -80.14420 35966 ft 459 kts 174°
2026-04-24 04:56 12.17420 -80.13362 35962 ft 458 kts 174°
2026-04-24 04:57 12.11120 -80.12304 35963 ft 458 kts 174°
2026-04-24 04:57 12.04830 -80.11248 35964 ft 458 kts 174°
2026-04-24 04:58 11.98574 -80.10198 35965 ft 458 kts 174°
2026-04-24 04:58 11.92269 -80.09140 35965 ft 458 kts 174°
2026-04-24 04:59 11.86008 -80.08090 35960 ft 458 kts 173°
2026-04-24 04:59 11.79707 -80.07034 35964 ft 460 kts 173°
2026-04-24 05:00 11.73379 -80.05973 35969 ft 460 kts 173°
2026-04-24 05:00 11.67081 -80.04918 35968 ft 460 kts 173°
2026-04-24 05:01 11.60756 -80.03859 35962 ft 460 kts 173°
2026-04-24 05:01 11.54421 -80.02799 35966 ft 461 kts 173°
2026-04-24 05:02 11.48094 -80.01741 35963 ft 461 kts 173°
2026-04-24 05:02 11.41754 -80.00681 35965 ft 461 kts 173°
2026-04-24 05:03 11.35456 -79.99628 35963 ft 461 kts 173°
2026-04-24 05:03 11.29111 -79.98568 35959 ft 461 kts 173°
2026-04-24 05:04 11.22769 -79.97509 35962 ft 461 kts 173°
2026-04-24 05:04 11.16460 -79.96457 35961 ft 461 kts 173°
2026-04-24 05:05 11.10115 -79.95398 35956 ft 462 kts 173°
2026-04-24 05:05 11.03750 -79.94337 35957 ft 463 kts 173°
2026-04-24 05:06 10.97425 -79.93283 35963 ft 463 kts 173°
2026-04-24 05:06 10.91047 -79.92220 35964 ft 463 kts 173°
2026-04-24 05:07 10.84720 -79.91167 35954 ft 463 kts 173°
2026-04-24 05:07 10.78351 -79.90107 35957 ft 463 kts 173°
2026-04-24 05:08 10.71985 -79.89048 35960 ft 463 kts 173°
2026-04-24 05:08 10.65656 -79.87995 35955 ft 463 kts 173°
2026-04-24 05:09 10.59299 -79.86938 35960 ft 463 kts 173°
2026-04-24 05:09 10.52926 -79.85880 35959 ft 463 kts 173°
2026-04-24 05:10 10.46553 -79.84821 35958 ft 463 kts 173°
2026-04-24 05:10 10.40227 -79.83766 35951 ft 463 kts 172°
2026-04-24 05:11 10.33854 -79.82677 35958 ft 464 kts 172°
2026-04-24 05:11 10.27516 -79.81585 35955 ft 464 kts 172°
2026-04-24 05:12 10.21139 -79.80490 35956 ft 464 kts 172°
2026-04-24 05:12 10.14767 -79.79397 35960 ft 463 kts 173°
2026-04-24 05:13 10.05370 -79.77787 35953 ft 454 kts 173°
2026-04-24 05:14 9.99125 -79.76720 35953 ft 454 kts 172°
2026-04-24 05:14 9.93948 -79.75835 35950 ft 454 kts 172°
2026-04-24 05:15 9.86698 -79.74596 35950 ft 454 kts 172°
2026-04-24 05:15 9.81496 -79.73707 35950 ft 454 kts 172°
2026-04-24 05:16 9.75260 -79.72642 35958 ft 454 kts 172°
2026-04-24 05:16 9.69059 -79.71583 35950 ft 454 kts 172°
2026-04-24 05:17 9.62841 -79.70521 36118 ft 456 kts 172°
2026-04-24 05:17 9.59702 -79.69986 36311 ft 456 kts 172°
2026-04-24 05:17 9.56557 -79.69449 36490 ft 455 kts 172°
2026-04-24 05:17 9.53454 -79.68919 36663 ft 455 kts 172°
2026-04-24 05:18 9.50325 -79.68385 36835 ft 455 kts 172°
2026-04-24 05:18 9.47183 -79.67849 36964 ft 457 kts 172°
2026-04-24 05:18 9.44028 -79.67312 36963 ft 461 kts 172°
2026-04-24 05:19 9.37750 -79.66242 36961 ft 457 kts 172°
2026-04-24 05:19 9.31488 -79.65174 36960 ft 455 kts 172°
2026-04-24 05:20 9.25240 -79.64109 36958 ft 455 kts 172°
2026-04-24 05:20 9.18989 -79.63045 36957 ft 454 kts 172°
2026-04-24 05:21 9.12766 -79.61985 36963 ft 454 kts 172°
2026-04-24 05:21 9.06547 -79.60927 36964 ft 455 kts 172°
2026-04-24 05:22 9.00290 -79.59863 36966 ft 455 kts 172°
2026-04-24 05:22 8.94081 -79.58808 36941 ft 455 kts 171°
2026-04-24 05:23 8.87845 -79.57748 36938 ft 453 kts 171°
2026-04-24 05:23 8.81631 -79.56658 36936 ft 452 kts 168°
2026-04-24 05:24 8.75777 -79.54389 36946 ft 455 kts 154°
2026-04-24 05:24 8.70224 -79.51281 36945 ft 456 kts 151°
2026-04-24 05:25 8.64776 -79.48035 36946 ft 456 kts 151°
2026-04-24 05:25 8.59292 -79.44762 36951 ft 456 kts 151°
2026-04-24 05:26 8.53805 -79.41517 36954 ft 457 kts 151°
2026-04-24 05:26 8.48322 -79.38292 36956 ft 459 kts 151°
2026-04-24 05:27 8.42798 -79.35046 36954 ft 459 kts 151°
2026-04-24 05:27 8.37303 -79.31818 36953 ft 459 kts 151°
2026-04-24 05:28 8.31772 -79.28568 36954 ft 459 kts 151°
2026-04-24 05:28 8.26269 -79.25336 36954 ft 459 kts 151°
2026-04-24 05:29 8.20733 -79.22086 36959 ft 459 kts 151°
2026-04-24 05:29 8.15205 -79.18842 36958 ft 460 kts 151°
2026-04-24 05:30 8.09698 -79.15610 36960 ft 460 kts 151°
2026-04-24 05:30 8.04146 -79.12354 36961 ft 461 kts 151°
2026-04-24 05:31 7.98592 -79.09097 36960 ft 461 kts 151°
2026-04-24 05:31 7.93064 -79.05856 36957 ft 460 kts 151°
2026-04-24 05:32 7.87515 -79.02605 36961 ft 460 kts 150°
2026-04-24 05:32 7.82005 -78.99377 36960 ft 460 kts 150°
2026-04-24 05:33 7.76451 -78.96125 36957 ft 462 kts 150°
2026-04-24 05:33 7.70907 -78.92879 36957 ft 462 kts 150°
2026-04-24 05:34 7.62575 -78.88003 36957 ft 462 kts 150°
2026-04-24 05:34 7.57003 -78.84743 36958 ft 462 kts 150°
2026-04-24 05:35 7.51434 -78.81486 36960 ft 462 kts 150°
2026-04-24 05:35 7.45923 -78.78219 36961 ft 462 kts 150°
2026-04-24 05:36 7.40398 -78.74863 36958 ft 462 kts 149°
2026-04-24 05:36 7.34917 -78.71524 36956 ft 462 kts 149°
2026-04-24 05:37 7.29386 -78.68164 36959 ft 463 kts 149°
2026-04-24 05:37 7.23892 -78.64833 36957 ft 463 kts 149°
2026-04-24 05:38 7.18358 -78.61480 36957 ft 463 kts 149°
2026-04-24 05:38 7.12822 -78.58127 36958 ft 463 kts 149°
2026-04-24 05:39 7.07327 -78.54799 36959 ft 463 kts 149°
2026-04-24 05:39 7.01803 -78.51455 36956 ft 463 kts 149°
2026-04-24 05:40 6.96274 -78.48109 36959 ft 463 kts 149°
2026-04-24 05:40 6.90745 -78.44763 36961 ft 463 kts 149°
2026-04-24 05:41 6.85245 -78.41437 36958 ft 463 kts 149°
2026-04-24 05:41 6.79705 -78.38087 36958 ft 463 kts 149°
2026-04-24 05:42 6.74205 -78.34762 36960 ft 463 kts 149°
2026-04-24 05:42 6.68639 -78.31450 36962 ft 463 kts 150°
2026-04-24 05:43 6.63096 -78.28206 36961 ft 462 kts 150°
2026-04-24 05:43 6.57514 -78.24940 36962 ft 462 kts 150°
2026-04-24 05:44 6.51979 -78.21700 36960 ft 462 kts 150°
2026-04-24 05:44 6.46413 -78.18442 36961 ft 462 kts 150°
2026-04-24 05:45 6.40874 -78.15201 36961 ft 462 kts 150°
2026-04-24 05:45 6.35304 -78.11943 36961 ft 462 kts 150°
2026-04-24 05:46 6.29763 -78.08702 36966 ft 462 kts 150°
2026-04-24 05:46 6.24193 -78.05445 36963 ft 462 kts 150°
2026-04-24 05:47 6.18633 -78.02195 36962 ft 461 kts 150°
2026-04-24 05:47 6.13107 -77.98965 36959 ft 461 kts 150°
2026-04-24 05:48 6.07542 -77.95714 36963 ft 461 kts 150°
2026-04-24 05:48 6.02025 -77.92492 36960 ft 460 kts 150°
2026-04-24 05:49 5.96490 -77.89259 36959 ft 459 kts 150°
2026-04-24 05:49 5.90951 -77.86025 36961 ft 460 kts 150°
2026-04-24 05:50 5.85437 -77.82806 36964 ft 461 kts 150°
2026-04-24 05:50 5.79877 -77.79561 36963 ft 461 kts 150°
2026-04-24 05:51 5.74319 -77.76318 36962 ft 461 kts 150°
2026-04-24 05:51 5.68797 -77.73098 36964 ft 461 kts 150°
2026-04-24 05:52 5.63234 -77.69853 36962 ft 461 kts 150°
2026-04-24 05:52 5.57713 -77.66634 36965 ft 461 kts 150°
2026-04-24 05:53 5.52163 -77.63399 36964 ft 459 kts 150°
2026-04-24 05:53 5.46626 -77.60172 36971 ft 459 kts 150°
2026-04-24 05:54 5.41129 -77.56969 36965 ft 458 kts 150°
2026-04-24 05:54 5.35615 -77.53756 36966 ft 457 kts 150°
2026-04-24 05:55 5.30103 -77.50546 36972 ft 457 kts 150°
2026-04-24 05:55 5.24630 -77.47359 36974 ft 457 kts 150°
2026-04-24 05:56 5.19121 -77.44152 36980 ft 457 kts 149°
2026-04-24 05:56 5.13620 -77.40950 36976 ft 454 kts 149°
2026-04-24 05:57 5.08173 -77.37780 36978 ft 454 kts 149°
2026-04-24 05:57 5.02691 -77.34590 36972 ft 454 kts 149°
2026-04-24 05:58 4.97248 -77.31424 36980 ft 454 kts 149°
2026-04-24 05:58 4.91773 -77.28239 36973 ft 454 kts 149°
2026-04-24 05:59 4.86326 -77.25072 36967 ft 454 kts 149°
2026-04-24 05:59 4.80842 -77.21883 36974 ft 454 kts 149°
2026-04-24 06:00 4.75406 -77.18724 36978 ft 454 kts 149°
2026-04-24 06:00 4.69956 -77.15556 36437 ft 450 kts 149°
2026-04-24 06:01 4.64493 -77.12382 36441 ft 455 kts 149°
2026-04-24 06:01 4.61796 -77.10815 36178 ft 452 kts 149°
2026-04-24 06:01 4.59070 -77.09231 35579 ft 452 kts 149°
2026-04-24 06:02 4.56339 -77.07645 34869 ft 455 kts 149°
2026-04-24 06:02 4.53582 -77.06044 34140 ft 459 kts 149°
2026-04-24 06:02 4.51744 -77.04976 33610 ft 461 kts 149°
2026-04-24 06:02 4.48960 -77.03359 32845 ft 463 kts 149°
2026-04-24 06:03 4.45245 -77.01202 32293 ft 456 kts 149°
2026-04-24 06:03 4.43438 -77.00153 32133 ft 449 kts 149°
2026-04-24 06:03 4.40759 -76.98598 31896 ft 440 kts 149°
2026-04-24 06:03 4.38131 -76.97072 31561 ft 433 kts 149°
2026-04-24 06:04 4.35563 -76.95581 31156 ft 429 kts 149°
2026-04-24 06:04 4.32976 -76.94079 30721 ft 426 kts 149°
2026-04-24 06:04 4.30416 -76.92593 30255 ft 425 kts 150°
2026-04-24 06:04 4.27844 -76.91101 29515 ft 428 kts 150°
2026-04-24 06:05 4.25235 -76.89595 28482 ft 437 kts 151°
2026-04-24 06:05 4.22493 -76.88290 27421 ft 447 kts 157°
2026-04-24 06:05 4.19576 -76.87096 26412 ft 456 kts 158°
2026-04-24 06:05 4.16605 -76.85916 25622 ft 459 kts 158°
2026-04-24 06:06 4.13620 -76.84733 24955 ft 460 kts 158°
2026-04-24 06:06 4.10641 -76.83549 24388 ft 457 kts 158°
2026-04-24 06:06 4.07733 -76.82392 23881 ft 454 kts 158°
2026-04-24 06:06 4.04793 -76.81219 23297 ft 451 kts 158°
2026-04-24 06:07 4.01890 -76.80062 22696 ft 447 kts 159°
2026-04-24 06:07 3.99012 -76.78913 22163 ft 442 kts 159°
2026-04-24 06:07 3.96207 -76.77793 21766 ft 434 kts 159°
2026-04-24 06:07 3.93457 -76.76695 21455 ft 416 kts 159°
2026-04-24 06:08 3.90822 -76.75643 21163 ft 399 kts 159°
2026-04-24 06:08 3.88290 -76.74632 20844 ft 383 kts 159°
2026-04-24 06:08 3.85839 -76.73654 20367 ft 374 kts 159°
2026-04-24 06:08 3.83429 -76.72692 19806 ft 369 kts 159°
2026-04-24 06:09 3.81086 -76.71757 19242 ft 364 kts 159°
2026-04-24 06:09 3.78735 -76.70819 18649 ft 361 kts 159°
2026-04-24 06:09 3.76413 -76.69893 18041 ft 357 kts 160°
2026-04-24 06:09 3.74116 -76.68976 17378 ft 353 kts 159°
2026-04-24 06:10 3.71875 -76.68082 16727 ft 349 kts 160°
2026-04-24 06:10 3.69624 -76.67185 16108 ft 346 kts 159°
2026-04-24 06:10 3.67396 -76.66296 15509 ft 342 kts 159°
2026-04-24 06:11 3.63007 -76.64546 14318 ft 336 kts 159°
2026-04-24 06:11 3.60847 -76.63685 13710 ft 333 kts 159°
2026-04-24 06:11 3.58700 -76.62828 13067 ft 330 kts 159°
2026-04-24 06:11 3.56577 -76.61982 12447 ft 327 kts 159°
2026-04-24 06:12 3.54494 -76.61151 11850 ft 324 kts 159°
2026-04-24 06:12 3.52406 -76.60323 11243 ft 321 kts 160°
2026-04-24 06:12 3.50265 -76.59732 10647 ft 317 kts 170°
2026-04-24 06:12 3.48092 -76.59375 10191 ft 314 kts 172°
2026-04-24 06:13 3.45932 -76.59066 10020 ft 315 kts 172°
2026-04-24 06:13 3.43788 -76.58764 9959 ft 311 kts 172°
2026-04-24 06:13 3.41689 -76.58465 9921 ft 297 kts 172°
2026-04-24 06:13 3.39702 -76.58181 9869 ft 278 kts 172°
2026-04-24 06:14 3.37843 -76.57914 9830 ft 262 kts 172°
2026-04-24 06:14 3.36071 -76.57659 9792 ft 251 kts 172°
2026-04-24 06:14 3.34352 -76.57411 9758 ft 248 kts 172°
2026-04-24 06:14 3.32669 -76.57168 9742 ft 241 kts 172°
2026-04-24 06:15 3.31062 -76.56936 9690 ft 229 kts 172°
2026-04-24 06:15 3.29481 -76.56706 9687 ft 228 kts 171°
2026-04-24 06:15 3.27969 -76.56230 9583 ft 228 kts 148°
2026-04-24 06:15 3.26911 -76.55085 9332 ft 226 kts 114°
2026-04-24 06:16 3.26600 -76.53570 9096 ft 227 kts 93°
2026-04-24 06:16 3.26582 -76.51986 8994 ft 228 kts 89°
2026-04-24 06:16 3.26607 -76.50395 8991 ft 228 kts 89°
2026-04-24 06:16 3.26628 -76.48809 8841 ft 228 kts 89°
2026-04-24 06:17 3.26641 -76.47244 8530 ft 220 kts 90°
2026-04-24 06:17 3.26653 -76.45769 8363 ft 208 kts 88°
2026-04-24 06:17 3.26905 -76.44357 8000 ft 206 kts 67°
2026-04-24 06:17 3.27710 -76.43224 7798 ft 194 kts 39°
2026-04-24 06:18 3.28833 -76.42627 7704 ft 176 kts 17°
2026-04-24 06:18 3.30005 -76.42363 7428 ft 171 kts
2026-04-24 06:18 3.31186 -76.42197 7254 ft 171 kts
2026-04-24 06:18 3.32365 -76.42008 7065 ft 172 kts 10°
2026-04-24 06:19 3.33543 -76.41798 6859 ft 171 kts 10°
2026-04-24 06:19 3.34715 -76.41592 6648 ft 171 kts 10°
2026-04-24 06:19 3.35887 -76.41388 6433 ft 170 kts 10°
2026-04-24 06:19 3.37039 -76.41187 6210 ft 169 kts 10°
2026-04-24 06:20 3.38200 -76.40985 5991 ft 169 kts 10°
2026-04-24 06:20 3.39358 -76.40782 5772 ft 168 kts 10°
2026-04-24 06:20 3.40511 -76.40581 5555 ft 168 kts 10°
2026-04-24 06:20 3.41660 -76.40381 5343 ft 167 kts 10°
2026-04-24 06:21 3.42801 -76.40182 5132 ft 166 kts 10°
2026-04-24 06:21 3.43939 -76.39983 4923 ft 166 kts 10°
2026-04-24 06:21 3.45065 -76.39786 4736 ft 163 kts 10°
2026-04-24 06:21 3.46121 -76.39602 4523 ft 150 kts 10°
2026-04-24 06:22 3.47124 -76.39426 4331 ft 145 kts
2026-04-24 06:22 3.48119 -76.39253 4148 ft 145 kts
2026-04-24 06:22 3.49115 -76.39079 3956 ft 145 kts
2026-04-24 06:22 3.50107 -76.38906 3763 ft 145 kts
2026-04-24 06:23 3.51098 -76.38733 3566 ft 144 kts
2026-04-24 06:23 3.52086 -76.38562 3387 ft 144 kts 10°
2026-04-24 06:23 3.53058 -76.38394 3224 ft 143 kts 10°
2026-04-24 06:23 3.54014 -76.38223 3169 ft 130 kts 11°
2026-04-24 06:24 3.54731 -76.38099 3167 ft 78 kts
2026-04-24 06:24 3.55059 -76.38052 3168 ft 24 kts 345°
2026-04-24 06:24 3.55108 -76.38160 3170 ft 16 kts 266°
2026-04-24 06:24 3.55034 -76.38212 3170 ft 18 kts 192°
2026-04-24 06:25 3.54870 -76.38240 3169 ft 30 kts 189°
2026-04-24 06:25 3.54760 -76.38257 3171 ft 13 kts 188°
2026-04-24 06:25 3.54672 -76.38271 3168 ft 13 kts 188°
2026-04-24 06:25 3.54575 -76.38287 3168 ft 17 kts 190°
2026-04-24 06:26 3.54433 -76.38315 3168 ft 24 kts 191°
2026-04-24 06:26 3.54252 -76.38348 3167 ft 28 kts 189°
2026-04-24 06:26 3.54066 -76.38401 3166 ft 27 kts 212°
2026-04-24 06:26 3.53927 -76.38515 3166 ft 26 kts 220°
2026-04-24 06:27 3.53794 -76.38591 3165 ft 17 kts 178°
2026-04-24 06:27 3.53726 -76.38596 3165 ft 6 kts 215°
2026-04-24 06:27 3.53717 -76.38604 3167 ft 0 kts 226°